Location: Bayshore Village Mobile Home Park
(26.6945°N, 81.8642°W)
Time: 16:21:44
(UTC+00:00)

OBJECT-B - Pass Details

Date: 17 June 2021
Orbit: 414 x 423 km, 97.0° (Epoch: 05 June)

Event Time Altitude Azimuth Distance (km) Brightness Sun altitude
Exits shadow 01:13:23 12° 155° (SSE) 1,356 2.8 -10.6°
Maximum altitude 01:16:11 54° 78° (ENE) 510 0.9 -11.2°
Drops below altitude 10° 01:19:19 10° 360° (N) 1,493 4.0 -11.7°
Sets 01:21:20 0° 355° (N) 2,357 5.2 -12.1°
